AEN91A EDDH-LEBB

Flight info

Callsign AEN91A
Flight time 2h 10m
Altitude 38000
Route HABFU1C HABFU Y348 MAWEQ DCT RASCA DCT FAMEN DCT BSN DCT BUZIK DCT RESMI UN857 DISAK DCT ARKIP DCT ARNAV DCT LMG DCT UVELI DCT OSMOB DCT VAVIX DCT BTZ DCT URUNA P181 SSN L176 CEGAM
Aircraft A320/M-SDE3FGHIRWY/LB1

Departure

Time 2026-04-20 16:45
Airport Hamburg Helmut Schmidt Airport (EDDH)

Arrival

Time 2026-04-20 18:56
Airport Bilbao Airport (LEBB)
Time Latitude Longitude Altitude Speed Heading
2026-04-20 15:58 53.63206 10.00375 49 ft 0 kts 86°
2026-04-20 16:29 53.63206 10.00365 48 ft 4 kts 86°
2026-04-20 16:29 53.63204 10.00320 48 ft 4 kts 86°
2026-04-20 16:29 53.63203 10.00275 48 ft 4 kts 86°
2026-04-20 16:30 53.63201 10.00239 48 ft 4 kts 95°
2026-04-20 16:30 53.63208 10.00197 48 ft 4 kts 129°
2026-04-20 16:30 53.63223 10.00178 45 ft 0 kts 176°
2026-04-20 16:32 53.63210 10.00180 48 ft 10 kts 176°
2026-04-20 16:32 53.63119 10.00191 48 ft 13 kts 176°
2026-04-20 16:33 53.63041 10.00156 48 ft 11 kts 212°
2026-04-20 16:33 53.62985 10.00093 48 ft 7 kts 213°
2026-04-20 16:33 53.62975 10.00082 48 ft 0 kts 213°
2026-04-20 16:33 53.62965 10.00075 48 ft 6 kts 201°
2026-04-20 16:34 53.62897 10.00049 48 ft 10 kts 203°
2026-04-20 16:34 53.62835 9.99992 48 ft 13 kts 212°
2026-04-20 16:34 53.62730 9.99892 46 ft 18 kts 208°
2026-04-20 16:34 53.62642 9.99769 46 ft 16 kts 248°
2026-04-20 16:35 53.62620 9.99600 45 ft 14 kts 259°
2026-04-20 16:35 53.62601 9.99431 47 ft 19 kts 259°
2026-04-20 16:35 53.62569 9.99153 47 ft 25 kts 259°
2026-04-20 16:35 53.62538 9.98882 47 ft 23 kts 259°
2026-04-20 16:36 53.62510 9.98632 47 ft 21 kts 259°
2026-04-20 16:36 53.62484 9.98401 47 ft 19 kts 259°
2026-04-20 16:36 53.62460 9.98190 47 ft 17 kts 259°
2026-04-20 16:36 53.62439 9.98009 47 ft 15 kts 259°
2026-04-20 16:37 53.62428 9.97886 45 ft 1 kts 271°
2026-04-20 16:37 53.62429 9.97878 45 ft 2 kts 276°
2026-04-20 16:37 53.62431 9.97864 44 ft 0 kts 284°
2026-04-20 16:41 53.62464 9.97791 41 ft 15 kts 319°
2026-04-20 16:41 53.62523 9.97784 38 ft 8 kts 44°
2026-04-20 16:41 53.62526 9.97790 39 ft 0 kts 47°
2026-04-20 16:44 53.62527 9.97791 39 ft 1 kts 47°
2026-04-20 16:44 53.62585 9.97907 41 ft 43 kts 50°
2026-04-20 16:45 53.62948 9.98642 45 ft 114 kts 50°
2026-04-20 16:45 53.63556 9.99873 326 ft 144 kts 50°
2026-04-20 16:45 53.64193 10.01165 1197 ft 144 kts 47°
2026-04-20 16:45 53.64857 10.02510 1736 ft 157 kts 46°
2026-04-20 16:46 53.65598 10.03994 2190 ft 174 kts 46°
2026-04-20 16:46 53.66419 10.05621 2629 ft 191 kts 47°
2026-04-20 16:46 53.67302 10.07419 3142 ft 204 kts 47°
2026-04-20 16:46 53.68207 10.09286 4014 ft 207 kts 48°
2026-04-20 16:47 53.69262 10.10917 4824 ft 208 kts 21°
2026-04-20 16:47 53.70680 10.11117 5591 ft 212 kts 344°
2026-04-20 16:47 53.71942 10.09625 5985 ft 239 kts 309°
2026-04-20 16:47 53.72861 10.07125 6538 ft 259 kts 300°
2026-04-20 16:48 53.73667 10.04369 7353 ft 265 kts 297°
2026-04-20 16:48 53.74365 10.01450 8199 ft 272 kts 287°
2026-04-20 16:48 53.74635 9.98238 9056 ft 280 kts 273°
2026-04-20 16:48 53.74468 9.94940 9902 ft 287 kts 260°
2026-04-20 16:49 53.73839 9.91701 10632 ft 297 kts 249°
2026-04-20 16:49 53.72997 9.88356 10911 ft 321 kts 249°
2026-04-20 16:49 53.72102 9.84808 11430 ft 333 kts 249°
2026-04-20 16:49 53.71184 9.81183 12177 ft 338 kts 249°
2026-04-20 16:50 53.70257 9.77525 12976 ft 341 kts 249°
2026-04-20 16:50 53.69318 9.73837 13766 ft 344 kts 249°
2026-04-20 16:50 53.68368 9.70122 14473 ft 347 kts 249°
2026-04-20 16:50 53.67409 9.66369 15154 ft 349 kts 249°
2026-04-20 16:51 53.66377 9.62638 15844 ft 353 kts 242°
2026-04-20 16:51 53.64963 9.59237 16540 ft 357 kts 230°
2026-04-20 16:51 53.63162 9.56336 17251 ft 361 kts 219°
2026-04-20 16:51 53.61039 9.54053 17951 ft 364 kts 209°
2026-04-20 16:52 53.58813 9.52023 18629 ft 365 kts 209°
2026-04-20 16:52 53.56577 9.49985 19228 ft 367 kts 209°
2026-04-20 16:52 53.54325 9.47933 19818 ft 369 kts 208°
2026-04-20 16:52 53.52067 9.45873 20412 ft 370 kts 208°
2026-04-20 16:53 53.49797 9.43809 20988 ft 372 kts 207°
2026-04-20 16:53 53.47516 9.41733 21567 ft 373 kts 207°
2026-04-20 16:53 53.45225 9.39647 22119 ft 376 kts 207°
2026-04-20 16:53 53.42925 9.37552 22651 ft 378 kts 207°
2026-04-20 16:54 53.40606 9.35437 23155 ft 381 kts 207°
2026-04-20 16:54 53.38268 9.33310 23682 ft 383 kts 206°
2026-04-20 16:54 53.35914 9.31172 24107 ft 386 kts 206°
2026-04-20 16:54 53.33527 9.29095 24501 ft 388 kts 202°
2026-04-20 16:55 53.30982 9.27606 24903 ft 388 kts 193°
2026-04-20 16:55 53.28324 9.26739 25313 ft 390 kts 189°
2026-04-20 16:55 53.25639 9.25949 25708 ft 393 kts 189°
2026-04-20 16:55 53.22944 9.25157 26107 ft 395 kts 189°
2026-04-20 16:56 53.20231 9.24355 26492 ft 397 kts 189°
2026-04-20 16:56 53.17505 9.23546 26864 ft 400 kts 189°
2026-04-20 16:56 53.14753 9.22729 27245 ft 402 kts 189°
2026-04-20 16:56 53.11994 9.21912 27615 ft 405 kts 189°
2026-04-20 16:57 53.09208 9.21089 27980 ft 407 kts 189°
2026-04-20 16:57 53.06407 9.20258 28342 ft 410 kts 189°
2026-04-20 16:57 53.03596 9.19424 28691 ft 413 kts 189°
2026-04-20 16:57 53.00759 9.18585 29026 ft 416 kts 189°
2026-04-20 16:58 52.97900 9.17742 29352 ft 419 kts 190°
2026-04-20 16:58 52.95072 9.16522 29666 ft 422 kts 199°
2026-04-20 16:58 52.92375 9.14563 29975 ft 425 kts 208°
2026-04-20 16:58 52.89757 9.12242 30262 ft 428 kts 208°
2026-04-20 16:59 52.87125 9.09919 30503 ft 431 kts 208°
2026-04-20 16:59 52.84467 9.07589 30746 ft 434 kts 208°
2026-04-20 16:59 52.81785 9.05251 30977 ft 436 kts 208°
2026-04-20 16:59 52.79096 9.02912 31215 ft 438 kts 209°
2026-04-20 17:00 52.73686 8.98198 31743 ft 441 kts 210°
2026-04-20 17:00 52.70958 8.95825 32078 ft 441 kts 210°
2026-04-20 17:00 52.68241 8.93461 32417 ft 442 kts 210°
2026-04-20 17:01 52.65528 8.91103 32731 ft 442 kts 210°
2026-04-20 17:01 52.62809 8.88740 33053 ft 442 kts 210°
2026-04-20 17:01 52.60089 8.86379 33392 ft 442 kts 210°
2026-04-20 17:01 52.57372 8.84028 33733 ft 442 kts 210°
2026-04-20 17:02 52.54655 8.81683 34087 ft 441 kts 210°
2026-04-20 17:02 52.51934 8.79336 34393 ft 441 kts 210°
2026-04-20 17:02 52.49220 8.77001 34681 ft 441 kts 210°
2026-04-20 17:02 52.46507 8.74667 34936 ft 441 kts 210°
2026-04-20 17:03 52.43784 8.72332 35179 ft 441 kts 210°
2026-04-20 17:03 52.41067 8.70005 35419 ft 441 kts 210°
2026-04-20 17:03 52.38344 8.67676 35663 ft 442 kts 210°
2026-04-20 17:03 52.35622 8.65352 35897 ft 442 kts 210°
2026-04-20 17:04 52.32897 8.63026 36123 ft 442 kts 210°
2026-04-20 17:04 52.30174 8.60691 36354 ft 442 kts 212°
2026-04-20 17:04 52.27621 8.57953 36571 ft 438 kts 221°
2026-04-20 17:04 52.25384 8.54602 36789 ft 435 kts 230°
2026-04-20 17:05 52.23397 8.50889 36996 ft 435 kts 231°
2026-04-20 17:05 52.21410 8.47166 37197 ft 435 kts 231°
2026-04-20 17:05 52.19418 8.43457 37415 ft 435 kts 231°
2026-04-20 17:05 52.17418 8.39748 37627 ft 435 kts 231°
2026-04-20 17:06 52.15419 8.36041 37837 ft 435 kts 231°
2026-04-20 17:06 52.13429 8.32347 38040 ft 435 kts 231°
2026-04-20 17:06 52.11424 8.28630 38171 ft 436 kts 231°
2026-04-20 17:07 52.07433 8.21240 38210 ft 435 kts 231°
2026-04-20 17:07 52.03428 8.13846 38208 ft 435 kts 231°
2026-04-20 17:08 51.99429 8.06496 38208 ft 435 kts 231°
2026-04-20 17:08 51.95419 7.99155 38206 ft 434 kts 231°
2026-04-20 17:09 51.91413 7.91832 38204 ft 434 kts 231°
2026-04-20 17:09 51.87397 7.84515 38204 ft 434 kts 231°
2026-04-20 17:10 51.83380 7.77214 38208 ft 435 kts 231°
2026-04-20 17:10 51.79356 7.69913 38206 ft 435 kts 231°
2026-04-20 17:11 51.75329 7.62642 38207 ft 435 kts 231°
2026-04-20 17:11 51.71275 7.55338 38196 ft 441 kts 231°
2026-04-20 17:12 51.67152 7.47924 38195 ft 447 kts 231°
2026-04-20 17:12 51.62982 7.40459 38195 ft 448 kts 231°
2026-04-20 17:13 51.58810 7.33000 38196 ft 449 kts 231°
2026-04-20 17:13 51.54622 7.25544 38196 ft 449 kts 231°
2026-04-20 17:14 51.50426 7.18107 38200 ft 450 kts 231°
2026-04-20 17:14 51.46236 7.10701 38201 ft 450 kts 231°
2026-04-20 17:15 51.42029 7.03272 38203 ft 450 kts 231°
2026-04-20 17:15 51.37814 6.95834 38203 ft 450 kts 231°
2026-04-20 17:16 51.33593 6.88433 38196 ft 451 kts 231°
2026-04-20 17:16 51.29358 6.81042 38203 ft 451 kts 231°
2026-04-20 17:17 51.25129 6.73656 38204 ft 451 kts 231°
2026-04-20 17:17 51.21584 6.67467 38208 ft 451 kts 231°
2026-04-20 17:18 51.17344 6.60118 38209 ft 450 kts 231°
2026-04-20 17:18 51.13093 6.52784 38205 ft 450 kts 231°
2026-04-20 17:19 51.08848 6.45462 38210 ft 450 kts 231°
2026-04-20 17:19 51.04607 6.38165 38199 ft 450 kts 231°
2026-04-20 17:20 51.00358 6.30885 38199 ft 449 kts 231°
2026-04-20 17:20 50.96108 6.23605 38198 ft 449 kts 231°
2026-04-20 17:21 50.91859 6.16345 38199 ft 449 kts 231°
2026-04-20 17:21 50.87599 6.09112 38200 ft 449 kts 231°
2026-04-20 17:22 50.83326 6.01878 38201 ft 449 kts 231°
2026-04-20 17:22 50.79057 5.94662 38199 ft 450 kts 231°
2026-04-20 17:23 50.74776 5.87446 38203 ft 450 kts 231°
2026-04-20 17:23 50.70497 5.80260 38202 ft 450 kts 231°
2026-04-20 17:24 50.66207 5.73075 38201 ft 450 kts 231°
2026-04-20 17:24 50.61914 5.65893 38207 ft 450 kts 230°
2026-04-20 17:25 50.57618 5.58741 38207 ft 449 kts 230°
2026-04-20 17:25 50.53330 5.51609 38205 ft 449 kts 231°
2026-04-20 17:26 50.49034 5.44487 38203 ft 449 kts 230°
2026-04-20 17:26 50.44739 5.37397 38198 ft 448 kts 230°
2026-04-20 17:27 50.40436 5.30321 38189 ft 448 kts 230°
2026-04-20 17:27 50.36140 5.23261 38185 ft 448 kts 231°
2026-04-20 17:28 50.31837 5.16211 38178 ft 448 kts 231°
2026-04-20 17:28 50.27528 5.09172 38179 ft 448 kts 231°
2026-04-20 17:29 50.23215 5.02155 38181 ft 448 kts 231°
2026-04-20 17:29 50.18903 4.95152 38184 ft 447 kts 231°
2026-04-20 17:30 50.14597 4.88164 38183 ft 446 kts 231°
2026-04-20 17:30 50.10492 4.80944 38181 ft 444 kts 234°
2026-04-20 17:31 50.06584 4.73506 38186 ft 443 kts 235°
2026-04-20 17:31 50.02664 4.66109 38185 ft 443 kts 234°
2026-04-20 17:32 49.98690 4.58792 38184 ft 443 kts 234°
2026-04-20 17:32 49.94751 4.51460 38180 ft 439 kts 236°
2026-04-20 17:33 49.90997 4.44010 38166 ft 437 kts 237°
2026-04-20 17:33 49.87278 4.36552 38162 ft 438 kts 237°
2026-04-20 17:34 49.83510 4.29131 38166 ft 439 kts 236°
2026-04-20 17:34 49.79704 4.21727 38167 ft 439 kts 236°
2026-04-20 17:35 49.75893 4.14329 38164 ft 440 kts 236°
2026-04-20 17:35 49.72085 4.06924 38164 ft 441 kts 236°
2026-04-20 17:36 49.68259 3.99521 38161 ft 441 kts 236°
2026-04-20 17:36 49.64425 3.92121 38159 ft 442 kts 236°
2026-04-20 17:37 49.60579 3.84724 38157 ft 442 kts 236°
2026-04-20 17:37 49.56726 3.77337 38154 ft 443 kts 236°
2026-04-20 17:38 49.52852 3.69926 38148 ft 444 kts 236°
2026-04-20 17:38 49.48985 3.62533 38148 ft 444 kts 236°
2026-04-20 17:39 49.45103 3.55128 38152 ft 445 kts 236°
2026-04-20 17:39 49.41211 3.47731 38162 ft 445 kts 236°
2026-04-20 17:40 49.37304 3.40344 38160 ft 446 kts 236°
2026-04-20 17:40 49.33392 3.32955 38170 ft 446 kts 236°
2026-04-20 17:41 49.29479 3.25584 38168 ft 446 kts 236°
2026-04-20 17:41 49.25558 3.18231 38170 ft 445 kts 236°
2026-04-20 17:42 49.21639 3.10911 38168 ft 445 kts 236°
2026-04-20 17:42 49.17536 3.03811 38180 ft 450 kts 228°
2026-04-20 17:43 49.12951 2.97320 38178 ft 449 kts 228°
2026-04-20 17:43 49.08366 2.90830 38174 ft 449 kts 228°
2026-04-20 17:44 49.03784 2.84369 38174 ft 448 kts 228°
2026-04-20 17:44 48.99208 2.77939 38178 ft 447 kts 228°
2026-04-20 17:45 48.94626 2.71525 38170 ft 447 kts 227°
2026-04-20 17:45 48.90053 2.65132 38176 ft 446 kts 227°
2026-04-20 17:46 48.85489 2.58763 38176 ft 445 kts 227°
2026-04-20 17:46 48.80920 2.52412 38154 ft 445 kts 227°
2026-04-20 17:47 48.76368 2.46095 38151 ft 444 kts 227°
2026-04-20 17:47 48.71818 2.39779 38152 ft 443 kts 227°
2026-04-20 17:48 48.67259 2.33493 38155 ft 443 kts 227°
2026-04-20 17:48 48.62708 2.27230 38151 ft 442 kts 227°
2026-04-20 17:49 48.57974 2.21274 38136 ft 448 kts 217°
2026-04-20 17:49 48.52151 2.17650 38135 ft 461 kts 197°
2026-04-20 17:50 48.45866 2.15650 38122 ft 461 kts 197°
2026-04-20 17:50 48.39590 2.13625 38110 ft 461 kts 197°
2026-04-20 17:51 48.33321 2.11594 38112 ft 461 kts 197°
2026-04-20 17:51 48.26933 2.10459 38101 ft 470 kts 182°
2026-04-20 17:52 48.20403 2.11671 38110 ft 474 kts 176°
2026-04-20 17:52 48.13875 2.12867 38098 ft 468 kts 184°
2026-04-20 17:53 48.07464 2.12051 38107 ft 461 kts 193°
2026-04-20 17:53 48.01113 2.10814 38110 ft 461 kts 193°
2026-04-20 17:54 47.94757 2.09591 38110 ft 460 kts 193°
2026-04-20 17:54 47.88395 2.08384 38112 ft 460 kts 193°
2026-04-20 17:55 47.82044 2.07195 38110 ft 460 kts 193°
2026-04-20 17:55 47.76763 2.06188 38102 ft 460 kts 193°
2026-04-20 17:56 47.70415 2.04970 38094 ft 460 kts 193°
2026-04-20 17:56 47.64091 2.03660 38079 ft 456 kts 198°
2026-04-20 17:57 47.58175 2.00663 38065 ft 447 kts 207°
2026-04-20 17:57 47.52385 1.97278 38065 ft 447 kts 207°
2026-04-20 17:58 47.46589 1.93921 38063 ft 447 kts 207°
2026-04-20 17:58 47.40797 1.90588 38059 ft 447 kts 207°
2026-04-20 17:59 47.35003 1.87254 38061 ft 447 kts 207°
2026-04-20 17:59 47.29205 1.83917 38059 ft 447 kts 207°
2026-04-20 18:00 47.23416 1.80602 38061 ft 447 kts 207°
2026-04-20 18:00 47.17587 1.77283 38059 ft 447 kts 206°
2026-04-20 18:01 47.11782 1.74017 38048 ft 447 kts 206°
2026-04-20 18:01 47.05977 1.70756 38050 ft 447 kts 206°
2026-04-20 18:02 47.00171 1.67498 38055 ft 447 kts 206°
2026-04-20 18:02 46.94403 1.64267 38061 ft 447 kts 206°
2026-04-20 18:03 46.88589 1.61021 38058 ft 447 kts 206°
2026-04-20 18:03 46.82769 1.57782 38058 ft 447 kts 206°
2026-04-20 18:04 46.76952 1.54543 38056 ft 447 kts 206°
2026-04-20 18:04 46.71148 1.51316 38048 ft 447 kts 206°
2026-04-20 18:05 46.62415 1.46487 38031 ft 447 kts 206°
2026-04-20 18:05 46.56596 1.43285 38025 ft 448 kts 206°
2026-04-20 18:06 46.50767 1.40076 38022 ft 448 kts 206°
2026-04-20 18:06 46.44936 1.36877 38029 ft 448 kts 206°
2026-04-20 18:07 46.39097 1.33687 38039 ft 448 kts 206°
2026-04-20 18:07 46.33257 1.30486 38030 ft 448 kts 206°
2026-04-20 18:08 46.27434 1.27306 38018 ft 448 kts 206°
2026-04-20 18:08 46.21621 1.24148 38012 ft 448 kts 206°
2026-04-20 18:09 46.15771 1.20969 38000 ft 447 kts 206°
2026-04-20 18:09 46.09948 1.17807 38006 ft 447 kts 206°
2026-04-20 18:10 46.04112 1.14661 38000 ft 448 kts 206°
2026-04-20 18:10 45.98283 1.11530 38001 ft 447 kts 206°
2026-04-20 18:11 45.92495 1.08411 37998 ft 447 kts 206°
2026-04-20 18:11 45.86671 1.05286 38006 ft 447 kts 206°
2026-04-20 18:12 45.81056 1.01632 38006 ft 437 kts 218°
2026-04-20 18:12 45.76352 0.96246 37999 ft 432 kts 225°
2026-04-20 18:13 45.71748 0.90721 37994 ft 432 kts 225°
2026-04-20 18:13 45.67127 0.85226 37990 ft 432 kts 225°
2026-04-20 18:14 45.62506 0.79733 37976 ft 432 kts 225°
2026-04-20 18:14 45.57892 0.74239 37975 ft 432 kts 225°
2026-04-20 18:15 45.53281 0.68763 37971 ft 432 kts 224°
2026-04-20 18:15 45.48650 0.63292 37961 ft 432 kts 224°
2026-04-20 18:16 45.44029 0.57842 37963 ft 431 kts 224°
2026-04-20 18:16 45.39413 0.52400 37952 ft 430 kts 224°
2026-04-20 18:17 45.34810 0.46975 37953 ft 430 kts 224°
2026-04-20 18:17 45.30199 0.41556 37948 ft 430 kts 224°
2026-04-20 18:18 45.25591 0.36158 37946 ft 429 kts 224°
2026-04-20 18:18 45.20977 0.30766 37942 ft 429 kts 224°
2026-04-20 18:19 45.16368 0.25393 37929 ft 429 kts 224°
2026-04-20 18:19 45.11763 0.20037 37934 ft 429 kts 224°
2026-04-20 18:20 45.07150 0.14685 37934 ft 429 kts 224°
2026-04-20 18:20 45.02533 0.09335 37932 ft 428 kts 224°
2026-04-20 18:21 44.97928 0.04004 37928 ft 428 kts 224°
2026-04-20 18:21 44.93307 -0.01321 37925 ft 428 kts 224°
2026-04-20 18:22 44.88688 -0.06632 37925 ft 429 kts 223°
2026-04-20 18:22 44.84069 -0.11944 37931 ft 429 kts 223°
2026-04-20 18:23 44.79446 -0.17249 37934 ft 429 kts 223°
2026-04-20 18:23 44.74817 -0.22536 37938 ft 429 kts 223°
2026-04-20 18:24 44.70186 -0.27830 37941 ft 429 kts 223°
2026-04-20 18:24 44.65548 -0.33103 37943 ft 429 kts 223°
2026-04-20 18:25 44.60755 -0.38113 37944 ft 431 kts 219°
2026-04-20 18:25 44.55759 -0.42797 37940 ft 432 kts 218°
2026-04-20 18:26 44.50750 -0.47455 37938 ft 432 kts 218°
2026-04-20 18:26 44.45789 -0.52173 37941 ft 432 kts 218°
2026-04-20 18:27 44.40838 -0.56932 37937 ft 432 kts 218°
2026-04-20 18:27 44.35886 -0.61684 37933 ft 432 kts 218°
2026-04-20 18:28 44.30923 -0.66419 37934 ft 432 kts 218°
2026-04-20 18:28 44.25978 -0.71153 37933 ft 431 kts 219°
2026-04-20 18:29 44.21131 -0.76074 37932 ft 430 kts 220°
2026-04-20 18:29 44.16336 -0.81064 37934 ft 430 kts 220°
2026-04-20 18:30 44.11525 -0.86006 37934 ft 430 kts 220°
2026-04-20 18:30 44.06687 -0.90912 37925 ft 430 kts 220°
2026-04-20 18:31 44.01850 -0.95801 37922 ft 430 kts 220°
2026-04-20 18:31 43.97011 -1.00685 37912 ft 430 kts 220°
2026-04-20 18:32 43.92176 -1.05573 37906 ft 430 kts 220°
2026-04-20 18:32 43.87338 -1.10456 37906 ft 430 kts 219°
2026-04-20 18:33 43.82506 -1.15311 36991 ft 431 kts 219°
2026-04-20 18:33 43.80064 -1.17765 36051 ft 436 kts 219°
2026-04-20 18:33 43.77608 -1.20229 35376 ft 435 kts 219°
2026-04-20 18:34 43.75170 -1.22670 34780 ft 432 kts 219°
2026-04-20 18:34 43.72737 -1.25101 34208 ft 429 kts 219°
2026-04-20 18:34 43.70327 -1.27501 33645 ft 425 kts 219°
2026-04-20 18:34 43.67934 -1.29879 33045 ft 422 kts 219°
2026-04-20 18:35 43.65567 -1.32234 32402 ft 416 kts 219°
2026-04-20 18:35 43.63235 -1.34559 31624 ft 412 kts 220°
2026-04-20 18:35 43.60923 -1.36867 30903 ft 407 kts 220°
2026-04-20 18:35 43.58640 -1.39143 30183 ft 403 kts 219°
2026-04-20 18:36 43.56382 -1.41384 29396 ft 399 kts 219°
2026-04-20 18:36 43.54142 -1.43606 28595 ft 394 kts 219°
2026-04-20 18:36 43.51925 -1.45804 27773 ft 390 kts 219°
2026-04-20 18:36 43.49740 -1.47968 26926 ft 385 kts 219°
2026-04-20 18:37 43.47604 -1.50161 26101 ft 379 kts 225°
2026-04-20 18:37 43.46374 -1.51839 25572 ft 373 kts 232°
2026-04-20 18:37 43.44883 -1.54699 24987 ft 366 kts 239°
2026-04-20 18:37 43.43486 -1.57617 24493 ft 363 kts 239°
2026-04-20 18:38 43.42091 -1.60505 24005 ft 361 kts 238°
2026-04-20 18:38 43.40699 -1.63370 23503 ft 360 kts 238°
2026-04-20 18:38 43.39310 -1.66225 22964 ft 358 kts 238°
2026-04-20 18:38 43.37925 -1.69059 22476 ft 355 kts 238°
2026-04-20 18:39 43.36534 -1.71902 21990 ft 352 kts 238°
2026-04-20 18:39 43.35174 -1.74688 21511 ft 350 kts 238°
2026-04-20 18:39 43.33823 -1.77461 21050 ft 348 kts 238°
2026-04-20 18:39 43.32484 -1.80221 20581 ft 346 kts 238°
2026-04-20 18:40 43.31095 -1.82913 20127 ft 346 kts 231°
2026-04-20 18:40 43.29377 -1.85229 19671 ft 346 kts 225°
2026-04-20 18:40 43.27594 -1.87448 19214 ft 345 kts 225°
2026-04-20 18:40 43.25819 -1.89653 18765 ft 344 kts 224°
2026-04-20 18:41 43.24041 -1.91858 18316 ft 344 kts 225°
2026-04-20 18:41 43.22270 -1.94055 17894 ft 341 kts 224°
2026-04-20 18:41 43.20541 -1.96202 17392 ft 340 kts 224°
2026-04-20 18:41 43.18775 -1.98394 16949 ft 337 kts 224°
2026-04-20 18:42 43.17063 -2.00515 16524 ft 335 kts 224°
2026-04-20 18:42 43.15339 -2.02653 16103 ft 333 kts 224°
2026-04-20 18:42 43.13630 -2.04777 15697 ft 331 kts 224°
2026-04-20 18:42 43.11925 -2.06895 15346 ft 328 kts 224°
2026-04-20 18:43 43.10234 -2.08990 14907 ft 328 kts 224°
2026-04-20 18:43 43.08525 -2.11102 14455 ft 326 kts 224°
2026-04-20 18:43 43.06875 -2.13139 14002 ft 321 kts 224°
2026-04-20 18:43 43.05233 -2.15164 13564 ft 315 kts 224°
2026-04-20 18:44 43.03602 -2.17175 13119 ft 309 kts 224°
2026-04-20 18:44 43.02026 -2.19123 12694 ft 303 kts 224°
2026-04-20 18:44 43.00746 -2.21284 12288 ft 293 kts 246°
2026-04-20 18:44 43.00278 -2.23960 11877 ft 285 kts 271°
2026-04-20 18:45 43.00712 -2.26552 11483 ft 281 kts 296°
2026-04-20 18:45 43.01877 -2.28662 11090 ft 278 kts 311°
2026-04-20 18:45 43.03198 -2.30543 10738 ft 272 kts 311°
2026-04-20 18:45 43.04503 -2.32398 10352 ft 269 kts 311°
2026-04-20 18:46 43.05789 -2.34229 9960 ft 266 kts 311°
2026-04-20 18:46 43.07064 -2.36047 9536 ft 262 kts 311°
2026-04-20 18:46 43.08307 -2.37825 9141 ft 257 kts 311°
2026-04-20 18:46 43.09532 -2.39582 8780 ft 255 kts 311°
2026-04-20 18:47 43.10756 -2.41339 8412 ft 254 kts 311°
2026-04-20 18:47 43.11976 -2.43091 8044 ft 255 kts 311°
2026-04-20 18:47 43.13066 -2.44979 7661 ft 253 kts 300°
2026-04-20 18:47 43.13876 -2.47077 7493 ft 243 kts 295°
2026-04-20 18:48 43.13996 -2.47411 7487 ft 245 kts 295°
2026-04-20 18:48 43.14758 -2.49519 7350 ft 245 kts 295°
2026-04-20 18:48 43.15535 -2.51617 6941 ft 249 kts 296°
2026-04-20 18:48 43.16326 -2.53740 6577 ft 251 kts 296°
2026-04-20 18:49 43.17115 -2.55862 6210 ft 249 kts 296°
2026-04-20 18:49 43.17890 -2.57950 5840 ft 243 kts 296°
2026-04-20 18:49 43.18646 -2.59986 5487 ft 237 kts 296°
2026-04-20 18:49 43.19383 -2.61973 5146 ft 232 kts 296°
2026-04-20 18:50 43.20107 -2.63927 4813 ft 228 kts 297°
2026-04-20 18:50 43.20820 -2.65853 4474 ft 225 kts 297°
2026-04-20 18:50 43.21521 -2.67748 4140 ft 222 kts 297°
2026-04-20 18:50 43.22213 -2.69618 3814 ft 219 kts 297°
2026-04-20 18:51 43.22896 -2.71467 3507 ft 216 kts 297°
2026-04-20 18:51 43.23559 -2.73262 3197 ft 206 kts 297°
2026-04-20 18:51 43.24192 -2.74977 2888 ft 197 kts 297°
2026-04-20 18:51 43.24801 -2.76627 2591 ft 190 kts 298°
2026-04-20 18:52 43.25386 -2.78213 2338 ft 184 kts 298°
2026-04-20 18:52 43.25953 -2.79754 2068 ft 176 kts 297°
2026-04-20 18:52 43.26477 -2.81177 1804 ft 159 kts 298°
2026-04-20 18:52 43.26955 -2.82474 1567 ft 147 kts 297°
2026-04-20 18:53 43.27403 -2.83694 1359 ft 140 kts 297°
2026-04-20 18:53 43.27836 -2.84870 1155 ft 137 kts 296°
2026-04-20 18:53 43.28260 -2.86022 948 ft 134 kts 296°
2026-04-20 18:53 43.28678 -2.87159 735 ft 134 kts 295°
2026-04-20 18:54 43.29094 -2.88287 517 ft 131 kts 296°
2026-04-20 18:54 43.29504 -2.89396 316 ft 129 kts 296°
2026-04-20 18:54 43.29910 -2.90496 144 ft 123 kts 295°
2026-04-20 18:54 43.30240 -2.91416 133 ft 86 kts 297°
2026-04-20 18:55 43.30339 -2.91684 133 ft 65 kts 296°
2026-04-20 18:56 43.30418 -2.91876 132 ft 32 kts 315°
2026-04-20 18:56 43.30553 -2.92013 132 ft 18 kts 328°
2026-04-20 18:56 43.30619 -2.92033 132 ft 8 kts 26°
2026-04-20 18:57 43.30621 -2.91947 132 ft 14 kts 114°
2026-04-20 18:57 43.30576 -2.91823 132 ft 14 kts 116°
2026-04-20 18:57 43.30531 -2.91702 132 ft 18 kts 116°
2026-04-20 18:57 43.30463 -2.91513 132 ft 21 kts 116°
2026-04-20 18:58 43.30403 -2.91348 132 ft 18 kts 117°
2026-04-20 18:58 43.30347 -2.91199 132 ft 17 kts 117°
2026-04-20 18:58 43.30307 -2.91082 132 ft 12 kts 103°
2026-04-20 18:58 43.30353 -2.91006 132 ft 11 kts 27°
2026-04-20 18:59 43.30408 -2.90955 132 ft 9 kts 62°
2026-04-20 18:59 43.30413 -2.90875 132 ft 8 kts 92°
2026-04-20 18:59 43.30409 -2.90801 132 ft 9 kts 103°
2026-04-20 18:59 43.30392 -2.90748 132 ft 2 kts 116°
2026-04-20 19:00 43.30402 -2.90717 132 ft 5 kts 43°
2026-04-20 19:00 43.30433 -2.90693 132 ft 4 kts 27°
2026-04-20 19:00 43.30442 -2.90687 132 ft 0 kts 26°